Home   Weather   Dresden   Past weeks

Flag for Germany Past Weather in Dresden, Saxony, Germany — Yesterday and Last 2 Weeks

45 °F


Feels Like: 41 °F
Forecast: 46 / 56 °F
Wind: 7 mph from Southeast

Location: Dresden-Klotzsche

Current Time: Oct 23, 2016 at 11:45:52 AM

Latest Report: Oct 23, 2016 at 11:20 AM

Visibility: 6 mi

Pressure: 30.01 "Hg

Humidity: 93%

Dew Point: 43 °F

Location of DresdenLocation

Past Weather in Dresden — Graph


Dresden Temperature Yesterday

Maximum temperature yesterday: 46 °F (at 12:20 PM)
Minimum temperature yesterday: 37 °F (at 7:20 AM)
Average temperature yesterday: 42 °F

High & Low Weather Summary for the Past Weeks

High63 °F (Oct 16, 2:50 PM)100% (Oct 8, 10:20 AM)30.27 "Hg (Oct 8, 10:20 AM)
Low36 °F (Oct 11, 6:50 AM)64% (Oct 16, 2:50 PM)29.80 "Hg (Oct 15, 1:20 AM)
Average46 °F90%30.06 "Hg
* Reported Oct 8 10:20 AM — Oct 23 10:20 AM, Dresden, Weather by CustomWeather, © 2016

Note: Actual official high and low records may vary slightly from our data, if they occured in-between our weather recording intervals... More about our weather records


Dresden Weather History for the Previous 24 Hours

Scroll right to see more
Time TempWeatherWind HumidityBarometerVisibility
10:20 AM
Sun, Oct 23
41 °FClear.5 mph100%30.01 "Hg4 mi
9:50 AM41 °FClear.3 mph93%30.01 "Hg4 mi
9:20 AM39 °FFog.2 mph100%30.01 "Hg3 mi
8:50 AM39 °FFog.1 mph100%30.01 "Hg3 mi
8:20 AM36 °FFog.1 mph100%29.98 "Hg1 mi
7:50 AM36 °FFog.2 mph100%29.98 "Hg4 mi
7:20 AM36 °FFog.2 mph100%29.98 "Hg0 mi
6:50 AM36 °FFog.1 mph100%29.98 "Hg4 mi
6:20 AM37 °FFog.2 mph93%29.98 "Hg5 mi
5:50 AM39 °FFog.2 mph100%29.98 "HgN/A
5:20 AM36 °FFog.2 mph100%29.98 "Hg2 mi
4:50 AM37 °FPassing clouds.3 mph100%29.98 "HgN/A
4:20 AM39 °FClear.1 mph93%29.98 "Hg10 mi
3:50 AM39 °FClear.3 mph93%29.98 "Hg10 mi
3:20 AM39 °FPartly cloudy.2 mph100%29.98 "HgN/A
2:50 AM41 °FPassing clouds.2 mph93%29.98 "HgN/A
2:20 AM41 °FPassing clouds.3 mph93%29.98 "HgN/A
1:50 AM41 °FClear.2 mph93%29.98 "Hg10 mi
1:20 AM41 °FPassing clouds.6 mph93%29.98 "HgN/A
12:50 AM39 °FPassing clouds.5 mph100%29.98 "HgN/A
12:20 AM39 °FClear.6 mph93%29.98 "Hg10 mi
11:50 PM
Sat, Oct 22
39 °FClear.5 mph93%29.98 "Hg10 mi
11:20 PM39 °FClear.5 mph100%29.98 "Hg10 mi
10:50 PM39 °FClear.5 mph100%29.98 "Hg10 mi
10:20 PM39 °FClear.5 mph100%29.98 "Hg10 mi
9:50 PM39 °FClear.2 mph100%29.98 "Hg10 mi
9:20 PM39 °FClear.3 mph100%29.95 "Hg10 mi
8:50 PM41 °FPassing clouds.2 mph93%29.95 "HgN/A
8:20 PM41 °FClear.5 mph100%29.95 "Hg10 mi
7:50 PM41 °FClear.6 mph100%29.95 "Hg10 mi
7:20 PM43 °FLight rain. Partly cloudy.5 mph93%29.95 "HgN/A
6:50 PM43 °FPartly cloudy.5 mph93%29.95 "HgN/A
6:20 PM43 °FPassing clouds.2 mph87%29.92 "HgN/A
5:50 PM43 °FPartly sunny.2 mph87%29.92 "HgN/A
5:20 PM43 °FRain showers. Broken clouds.3 mph93%29.92 "Hg6 mi
4:50 PM45 °FPartly sunny.5 mph87%29.92 "HgN/A
4:20 PM45 °FLight rain. Partly sunny.6 mph93%29.92 "HgN/A
3:50 PM45 °FLight rain. Partly sunny.6 mph87%29.92 "HgN/A
3:20 PM43 °FLight rain. Partly sunny.8 mph93%29.92 "HgN/A
2:50 PM45 °FLight rain. Partly sunny.6 mph87%29.92 "HgN/A
2:20 PM45 °FLight rain. Partly sunny.5 mph87%29.92 "HgN/A
1:50 PM46 °FCloudy.5 mph82%29.92 "HgN/A
1:20 PM46 °FLight rain. More clouds than sun.6 mph76%29.92 "HgN/A
12:50 PM46 °FMore clouds than sun.6 mph82%29.92 "HgN/A
12:20 PM46 °FPartly sunny.6 mph76%29.92 "HgN/A
11:50 AM45 °FPartly sunny.5 mph81%29.92 "HgN/A
11:20 AM45 °FBroken clouds.7 mph81%29.92 "HgN/A
Weather by CustomWeather, © 2016

See weather overviewHow to use our weather pages